Location: Monroe
(41.9160°N, 83.3980°W)
Time: 09:29:29
(UTC-05:00)

ISS - All Passes

Search period start: 08 February 2016 00:00
Search period end: 18 February 2016 00:00
Orbit: 399 x 408 km, 51.6° (Epoch: 08 February)

Date Brightness Start Highest point End Pass type
(mag) Time Alt. Az. Time Alt. Az. Time Alt. Az.
08 Feb - 00:31:57 10° W 00:34:24 20° SW 00:36:52 10° S night (unlit)
08 Feb - 15:37:01 10° SSE 15:38:05 11° SE 15:39:10 10° ESE daylight
08 Feb - 17:10:50 10° WSW 17:14:05 83° NW 17:17:20 10° NE daylight
08 Feb - 18:48:26 10° WNW 18:50:56 20° NNW 18:53:25 10° NE visible
08 Feb - 20:26:18 10° NNW 20:28:17 15° N 20:30:16 10° NE visible
08 Feb - 22:02:32 10° NW 22:05:29 31° NNE 22:08:25 10° E night (unlit)
08 Feb - 23:38:56 10° WNW 23:41:58 38° SW 23:45:00 10° SSE night (unlit)
09 Feb - 16:18:22 10° SW 16:21:31 50° SE 16:24:42 10° ENE daylight
09 Feb - 17:55:18 10° W 17:58:07 26° NNW 18:00:57 10° NE daylight
09 Feb - 19:33:27 10° NW 19:35:23 15° N 19:37:19 10° NE visible
09 Feb - 21:10:04 10° NW 21:12:42 22° NNE 21:15:20 10° ENE visible
09 Feb - 22:46:12 10° WNW 22:49:27 75° SW 22:52:41 10° SE night (unlit)
10 Feb - 15:26:15 10° SSW 15:29:02 26° SE 15:31:48 10° ENE daylight
10 Feb - 17:02:17 10° W 17:05:22 39° NNW 17:08:27 10° NE daylight
10 Feb - 18:40:22 10° NW 18:42:28 16° N 18:44:34 10° NNE visible
10 Feb - 20:17:33 10° NNW 20:19:52 18° NNE 20:22:09 10° ENE visible
10 Feb - 21:53:36 10° NW 21:56:49 58° NNE 22:00:01 10° ESE night (unlit)
10 Feb - 23:30:50 10° W 23:32:58 16° SW 23:35:05 10° S night (unlit)
11 Feb - 14:34:49 10° SSE 14:36:35 14° SE 14:38:21 10° E daylight
11 Feb - 16:09:26 10° WSW 16:12:40 69° NNW 16:15:55 10° NE daylight
11 Feb - 17:47:10 10° WNW 17:49:34 19° NNW 17:51:58 10° NNE daylight
11 Feb - 19:24:54 10° NNW 19:26:56 15° N 19:28:59 10° NE visible
11 Feb - 21:01:04 10° NW 21:04:05 35° NNE 21:07:06 10° E visible
11 Feb - 22:37:35 10° WNW 22:40:30 31° SW 22:43:24 10° SSE night (unlit)
12 Feb - 15:16:49 10° SW 15:20:01 63° SE 15:23:15 10° ENE daylight
12 Feb - 16:53:58 10° WNW 16:56:41 24° NNW 16:59:25 10° NE daylight
12 Feb - 18:32:03 10° NW 18:33:59 15° N 18:35:55 10° NE visible
12 Feb - 20:08:32 10° NW 20:11:16 24° NNE 20:14:00 10° ENE visible
12 Feb - 21:44:43 10° WNW 21:47:56 61° SW 21:51:07 10° SE night (unlit)
13 Feb - 14:24:30 10° SSW 14:27:26 31° SE 14:30:22 10° ENE daylight
13 Feb - 16:00:50 10° W 16:03:51 34° NNW 16:06:52 10° NE daylight
13 Feb - 17:38:58 10° NW 17:41:00 15° N 17:43:02 10° NNE daylight
13 Feb - 19:15:58 10° NNW 19:18:22 19° NNE 19:20:46 10° ENE visible
13 Feb - 20:52:01 10° NW 20:55:16 70° NNE 20:58:29 10° ESE visible
13 Feb - 22:29:39 10° W 22:31:19 13° SW 22:33:00 10° SSW night (unlit)
14 Feb - 13:32:43 10° S 13:34:54 17° SE 13:37:06 10° E daylight
14 Feb - 15:07:51 10° WSW 15:11:04 57° NNW 15:14:16 10° NE daylight
14 Feb - 16:45:44 10° WNW 16:48:02 18° NNW 16:50:19 10° NNE daylight
14 Feb - 18:23:18 10° NNW 18:25:24 16° N 18:27:31 10° NE daylight
14 Feb - 19:59:24 10° NW 20:02:30 40° NNE 20:05:35 10° E visible
14 Feb - 21:36:05 10° WNW 21:38:50 25° SW 21:41:33 10° SSE visible
15 Feb - 14:15:05 10° SW 14:18:19 77° SE 14:21:35 10° ENE daylight
15 Feb - 15:52:26 10° WNW 15:55:04 22° NNW 15:57:42 10° NE daylight
15 Feb - 17:30:26 10° NW 17:32:23 15° N 17:34:21 10° NE daylight
15 Feb - 19:06:49 10° NW 19:09:38 27° NNE 19:12:28 10° E visible
15 Feb - 20:43:04 10° WNW 20:46:13 49° SW 20:49:21 10° SE visible
16 Feb - 13:22:36 10° SSW 13:25:40 38° SE 13:28:43 10° ENE daylight
16 Feb - 14:59:12 10° W 15:02:09 30° NNW 15:05:05 10° NE daylight
16 Feb - 16:37:22 10° NW 16:39:21 15° N 16:41:20 10° NNE daylight
16 Feb - 18:14:11 10° NW 18:16:42 20° NNE 18:19:12 10° ENE daylight
16 Feb - 19:50:16 10° NW 19:53:31 85° NE 19:56:45 10° SE visible
16 Feb - 21:28:32 10° WSW 21:29:30 11° SW 21:30:26 10° SSW visible
17 Feb - 12:30:33 10° S 12:33:03 20° SE 12:35:32 10° E daylight
17 Feb - 14:06:06 10° WSW 14:09:16 48° NNW 14:12:26 10° NE daylight
17 Feb - 15:44:05 10° NW 15:46:18 17° N 15:48:30 10° NNE daylight
17 Feb - 17:21:29 10° NNW 17:23:40 17° N 17:25:52 10° NE daylight
17 Feb - 18:57:34 10° NW 19:00:42 47° NNE 19:03:51 10° ESE visible
17 Feb - 20:34:26 10° W 20:36:57 21° SW 20:39:28 10° S visible
